DW5330 Weather Reports


time (UTC)temp
C
wind
direction
speed
KPH
gust
KPH
rain 1hr
cm
rain 24hr
cm
rain mn
cm
humidity
%
barometer
mb
20260831054505 18 214 1.6 8.0 0.00 0.00 0.00 66 1028.3
20260831052505 18 315 3.2 8.0 0.00 0.00 0.00 68 1028.4
20260831052006 18 127 1.6 4.8 0.00 0.00 0.00 69 1028.4
20260831051506 18 183 4.8 8.0 0.00 0.00 0.00 69 1028.4
20260831051006 18 340 3.2 8.0 0.00 0.00 0.00 69 1028.4
20260831050505 18 145 3.2 9.7 0.00 0.00 0.00 69 1028.5
20260831050006 18 202 1.6 4.8 0.00 0.00 0.00 70 1028.5
20260831045506 18 303 1.6 4.8 0.00 0.00 0.00 69 1028.5
20260831044505 18 275 1.6 8.0 0.00 0.00 0.00 70 1028.6
20260831043505 18 133 3.2 12.9 0.00 0.00 0.00 72 1028.7
20260831042506 18 144 3.2 11.3 0.00 0.00 0.00 72 1028.7
20260831042005 18 177 3.2 11.3 0.00 0.00 0.00 72 1028.7
20260831035006 18 166 4.8 9.7 0.00 0.00 0.00 74 1028.8
20260831034506 18 226 3.2 11.3 0.00 0.00 0.00 75 1028.9
20260831034005 18 225 4.8 9.7 0.00 0.00 0.00 74 1028.9
20260831033505 18 188 3.2 8.0 0.00 0.00 0.00 74 1029.0
20260831033005 18 340 3.2 9.7 0.00 0.00 0.00 73 1029.1
20260831030505 18 63 3.2 9.7 0.00 0.00 0.00 71 1029.3
20260831025005 18 339 1.6 8.0 0.00 0.00 0.00 71 1029.4
20260831024005 18 155 4.8 9.7 0.00 0.00 0.00 70 1029.5
20260831023506 19 246 3.2 4.8 0.00 0.00 0.00 69 1029.6
20260831023005 19 299 1.6 8.0 0.00 0.00 0.00 68 1029.7
20260831022505 19 359 3.2 8.0 0.00 0.00 0.00 68 1029.8
20260831021506 18 37 1.6 3.2 0.00 0.00 0.00 68 1030.0
20260831021005 18 207 3.2 8.0 0.00 0.00 0.00 69 1030.0
20260831015506 18 323 4.8 11.3 0.00 0.00 0.00 69 1030.2
20260831015005 18 212 3.2 4.8 0.00 0.00 0.00 69 1030.2
20260831014506 17 55 3.2 8.0 0.00 0.00 0.00 72 1030.3
20260831014005 17 88 3.2 8.0 0.00 0.00 0.00 72 1030.5
20260831013505 17 324 3.2 8.0 0.00 0.00 0.00 72 1030.5
20260831013006 17 318 4.8 8.0 0.00 0.00 0.00 73 1030.6
20260831012505 17 33 3.2 8.0 0.00 0.00 0.00 70 1030.7
20260831012006 17 88 1.6 4.8 0.00 0.00 0.00 69 1030.7
20260831011006 17 208 3.2 4.8 0.00 0.00 0.00 68 1030.7
20260831010505 17 25 4.8 4.8 0.00 0.00 0.00 69 1030.8
20260831010005 18 22 3.2 8.0 0.00 0.00 0.00 67 1030.9
20260831005505 18 346 3.2 8.0 0.00 0.00 0.00 67 1030.9
20260831004006 18 163 1.6 3.2 0.00 0.00 0.00 63 1031.0
20260831003505 19 279 3.2 8.0 0.00 0.00 0.00 63 1031.0
20260831003005 20 272 0.0 4.8 0.00 0.00 0.00 60 1031.0
20260831002505 19 286 3.2 4.8 0.00 0.00 0.00 61 1031.0
20260831002005 19 295 1.6 1.6 0.00 0.00 0.00 60 1031.0
20260831001005 18 165 1.6 3.2 0.00 0.00 0.00 62 1031.0
20260830235505 17 272 4.8 8.0 0.00 0.00 0.00 65 1030.9
20260830235005 17 279 4.8 8.0 0.00 0.00 0.00 66 1030.9
20260830234005 17 302 3.2 4.8 0.00 0.00 0.00 65 1030.9
20260830232006 16 277 0.0 3.2 0.00 0.00 0.00 67 1031.0
20260830230506 16 268 3.2 4.8 0.00 0.00 0.00 68 1030.9
20260830230005 16 307 4.8 8.0 0.00 0.00 0.00 69 1030.9
20260830224505 18 241 1.6 3.2 0.00 0.00 0.00 63 1031.0
20260830224005 19 242 0.0 3.2 0.00 0.00 0.00 61 1031.0
20260830223505 18 208 0.0 1.6 0.00 0.00 0.00 62 1031.0
20260830223005 19 263 0.0 0.0 0.00 0.00 0.00 61 1031.0
20260830222505 18 263 0.0 0.0 0.00 0.00 0.00 61 1031.0
20260830222006 18 263 0.0 0.0 0.00 0.00 0.00 62 1031.0
20260830220506 17 356 0.0 1.6 0.00 0.00 0.00 66 1030.9
20260830220005 17 256 1.6 3.2 0.00 0.00 0.00 64 1030.8
20260830215504 17 210 0.0 0.0 0.00 0.00 0.00 63 1030.7
20260830215006 17 218 1.6 3.2 0.00 0.00 0.00 64 1030.7
20260830214005 16 188 0.0 1.6 0.00 0.00 0.00 67 1030.6
20260830213505 16 174 0.0 1.6 0.00 0.00 0.00 67 1030.6
20260830212505 15 173 1.6 3.2 0.00 0.00 0.00 70 1030.5
20260830211005 13 248 0.0 3.2 0.00 0.00 0.00 75 1030.5
20260830210505 13 171 0.0 0.0 0.00 0.00 0.00 74 1030.4
20260830205005 12 181 0.0 1.6 0.00 0.00 0.00 78 1030.2
20260830204005 12 159 0.0 3.2 0.00 0.00 0.00 80 1030.1
20260830202504 12 161 0.0 1.6 0.00 0.00 0.00 84 1030.0
20260830202005 12 178 0.0 3.2 0.00 0.00 0.00 84 1030.0
20260830201504 12 189 1.6 3.2 0.00 0.00 0.00 85 1029.9
20260830201005 12 193 1.6 1.6 0.00 0.00 0.00 85 1029.8
20260830200505 12 157 0.0 3.2 0.00 0.00 0.00 85 1029.8
20260830193504 12 194 0.0 1.6 0.00 0.00 0.00 86 1029.6
20260830192505 12 190 0.0 1.6 0.00 0.00 0.00 87 1029.6
20260830191505 12 191 1.6 3.2 0.00 0.00 0.00 88 1029.5
20260830182505 12 202 0.0 1.6 0.00 0.00 0.00 91 1029.3
20260830182005 12 243 0.0 0.0 0.00 0.00 0.00 91 1029.3
20260830181505 12 264 0.0 0.0 0.00 0.00 0.00 91 1029.4
20260830180504 12 264 0.0 3.2 0.00 0.00 0.00 91 1029.4
20260830180005 12 251 0.0 0.0 0.00 0.00 0.00 91 1029.5
20260830175504 12 251 0.0 0.0 0.00 0.00 0.00 91 1029.5
20260830174004 12 251 0.0 0.0 0.00 0.00 0.00 90 1029.6
20260830173004 12 251 0.0 0.0 0.00 0.00 0.00 90 1029.6
20260830172504 12 251 0.0 0.0 0.00 0.00 0.00 90 1029.7
20260830172004 13 251 0.0 0.0 0.00 0.00 0.00 90 1029.7
20260830171505 13 251 0.0 0.0 0.00 0.00 0.00 90 1029.7
20260830170004 13 165 0.0 0.0 0.00 0.00 0.00 90 1029.7
20260830165505 13 165 0.0 0.0 0.00 0.00 0.00 89 1029.8
20260830165005 13 165 0.0 0.0 0.00 0.00 0.00 89 1029.9
20260830164505 13 165 0.0 0.0 0.00 0.00 0.00 89 1029.9
20260830164004 13 165 0.0 1.6 0.00 0.00 0.00 89 1029.9
20260830163004 13 144 0.0 0.0 0.00 0.00 0.00 88 1030.0
20260830162505 13 144 0.0 0.0 0.00 0.00 0.00 88 1030.0
20260830161504 13 144 0.0 0.0 0.00 0.00 0.00 88 1030.0
20260830155007 14 189 0.0 0.0 0.00 0.00 0.00 87 1030.1
20260830154507 14 189 0.0 0.0 0.00 0.00 0.00 87 1030.1
20260830154007 14 189 0.0 0.0 0.00 0.00 0.00 87 1030.2
20260830153506 14 189 0.0 1.6 0.00 0.00 0.00 87 1030.2
20260830152507 14 178 0.0 0.0 0.00 0.00 0.00 86 1030.1
20260830151506 15 178 0.0 1.6 0.00 0.00 0.00 86 1030.2
20260830151006 15 161 0.0 0.0 0.00 0.00 0.00 85 1030.2
20260830145007 15 176 0.0 1.6 0.00 0.00 0.00 85 1030.3
20260830144007 15 161 1.6 3.2 0.00 0.00 0.00 84 1030.4
20260830143506 15 172 0.0 3.2 0.00 0.00 0.00 84 1030.4
20260830141507 15 178 3.2 3.2 0.00 0.00 0.00 83 1030.4
20260830141006 15 175 3.2 4.8 0.00 0.00 0.00 82 1030.3
20260830135007 14 167 3.2 4.8 0.00 0.00 0.00 82 1030.4
20260830133507 15 183 4.8 8.0 0.00 0.00 0.00 83 1030.5
20260830132507 15 172 3.2 4.8 0.00 0.00 0.00 83 1030.4
20260830131506 15 180 3.2 4.8 0.00 0.00 0.00 83 1030.5
20260830131007 15 170 3.2 4.8 0.00 0.00 0.00 82 1030.5
20260830130506 15 177 3.2 4.8 0.00 0.00 0.00 82 1030.5
20260830125506 15 173 3.2 8.0 0.00 0.00 0.00 81 1030.5
20260830125007 15 150 3.2 4.8 0.00 0.00 0.00 81 1030.5
20260830124506 15 172 4.8 9.7 0.00 0.00 0.00 81 1030.5
20260830124007 15 171 4.8 9.7 0.00 0.00 0.00 81 1030.5
20260830123007 15 177 3.2 8.0 0.00 0.00 0.00 82 1030.5
20260830122506 15 169 3.2 8.0 0.00 0.00 0.00 84 1030.5
20260830121506 15 179 4.8 8.0 0.00 0.00 0.00 83 1030.5
20260830120006 15 270 0.0 0.0 0.00 0.00 0.00 78 1030.2
20260830115007 15 270 1.6 3.2 0.00 0.00 0.00 78 1030.2
20260830114506 15 272 3.2 4.8 0.00 0.00 0.00 78 1030.1
20260830112506 15 272 0.0 3.2 0.00 0.00 0.00 79 1030.1
20260830110007 15 265 3.2 3.2 0.00 0.00 0.00 80 1030.1
20260830105006 15 275 0.0 0.0 0.00 0.00 0.00 80 1030.0
20260830104006 15 275 0.0 0.0 0.00 0.00 0.00 80 1029.8
20260830103506 15 275 0.0 0.0 0.00 0.00 0.00 80 1029.9
20260830102506 15 268 0.0 0.0 0.00 0.00 0.00 80 1029.8
20260830102006 15 268 1.6 3.2 0.00 0.00 0.00 81 1029.7
20260830101006 15 271 0.0 3.2 0.00 0.00 0.00 82 1029.6
20260830100506 15 288 0.0 1.6 0.00 0.00 0.00 82 1029.6
20260830095506 15 315 0.0 1.6 0.00 0.00 0.00 82 1029.6
20260830095006 15 314 0.0 1.6 0.00 0.00 0.00 81 1029.6
20260830092006 16 103 0.0 1.6 0.00 0.00 0.00 80 1029.4
20260830091506 16 94 1.6 3.2 0.00 0.00 0.00 79 1029.4
20260830091005 16 119 1.6 3.2 0.00 0.00 0.00 78 1029.3
20260830090506 16 312 0.0 3.2 0.00 0.00 0.00 78 1029.3
20260830090006 16 177 1.6 4.8 0.00 0.00 0.00 78 1029.3
20260830085006 16 111 0.0 3.2 0.00 0.00 0.00 77 1029.2
20260830080505 16 156 4.8 9.7 0.00 0.00 0.00 73 1028.8
20260830075505 16 144 8.0 9.7 0.00 0.00 0.00 72 1028.7
20260830075006 16 176 4.8 8.0 0.00 0.00 0.00 72 1028.7
20260830073006 16 175 4.8 4.8 0.00 0.00 0.00 72 1028.7
20260830072006 17 137 3.2 4.8 0.00 0.00 0.00 72 1028.6
20260830065505 17 334 1.6 4.8 0.00 0.00 0.00 69 1028.4
20260830063506 17 356 3.2 8.0 0.00 0.00 0.00 70 1028.5
20260830063006 17 315 1.6 3.2 0.00 0.00 0.00 70 1028.5
20260830062506 17 328 3.2 4.8 0.00 0.00 0.00 70 1028.5
20260830061506 17 13 3.2 4.8 0.00 0.00 0.00 69 1028.5
20260830060506 17 336 3.2 4.8 0.00 0.00 0.00 69 1028.5
20260830060006 17 323 3.2 4.8 0.00 0.00 0.00 69 1028.5